Overview Statistics Trail Chart Weather Telemetry Raw packets
 

This is the latest recevied weather packets stored in our database for station/object KB8TTR. If no packets are shown the sender has not sent any weather packets the latest 10 day(s).

<< 9 10 11 12 13 14 15 >>
Time Temp. Humidity Pressure Rain* Wind** Luminosity Snow
1788552004 25.56° C 83% 1013.6 hPa 0 mm - 183 W/m² -
1788551703 25.56° C 84% 1013.5 hPa 0 mm - 178 W/m² -
1788551402 25.56° C 83% 1013.7 hPa 0 mm - 179 W/m² -
1788551097 25.56° C 84% 1013.7 hPa 0 mm - 196 W/m² -
1788550792 25.56° C 83% 1014.1 hPa 0 mm - 214 W/m² -
1788550487 25.56° C 83% 1014.7 hPa 0 mm - 179 W/m² -
1788550182 25.56° C 84% 1014.9 hPa 0 mm - 208 W/m² -
1788549877 25.56° C 84% 1015.2 hPa 0 mm - 208 W/m² -
1788549574 25.56° C 84% 1015.5 hPa 0 mm - 236 W/m² -
1788549270 25.56° C 82% 1015.7 hPa 0 mm - 275 W/m² -
1788548967 25.56° C 83% 1015.8 hPa 0 mm - 298 W/m² -
1788548666 26.67° C 80% 1016 hPa 0 mm - 305 W/m² -
1788548363 26.11° C 84% 1016.1 hPa 0 mm - 821 W/m² -
1788548059 25.56° C 87% 1016.2 hPa 0 mm - 835 W/m² -
1788547759 25° C 91% 1016 hPa 0 mm - 939 W/m² -
1788547453 24.44° C 91% 1016 hPa 0 mm - 726 W/m² -
1788547149 24.44° C 93% 1015.9 hPa 0 mm - 374 W/m² -
1788546844 23.89° C 96% 1015.9 hPa 0 mm - 751 W/m² -
1788546540 23.33° C 96% 1015.7 hPa 0 mm - 874 W/m² -
1788546240 22.78° C 96% 1015.4 hPa 0 mm - 954 W/m² -
1788545935 22.78° C 96% 1015.5 hPa 0 mm - 420 W/m² -
1788545630 22.78° C 97% 1015.4 hPa 0 mm - 364 W/m² -
1788545325 22.78° C 98% 1015.6 hPa 0 mm - 342 W/m² -
1788545021 22.22° C 98% 1015.8 hPa 0 mm - 472 W/m² -
1788544720 21.67° C 98% 1016 hPa 0 mm - 420 W/m² -

* Rain latest hour (hover to see other rain measurements)
** Current wind speed in m/s (hover to see current wind gust speed)